Terminal Aerodrome Forecast
Issued by NWS

Home | Current Version | Previous Version | Graphics & Text | Print | Product List | Glossary On
Versions: 1 2 3 4 5 6 7 8 9 10 11 12 13 14 15 16 17 18 19
000
FTUS43 KBIS 171700
TAFDIK
TAF
KDIK 171724Z 1718/1818 25012G18KT P6SM SCT100
     FM171900 24009KT P6SM VCTS SCT090CB
     FM172200 26010KT P6SM BKN080
     FM181500 31012G19KT P6SM SCT060=

USA.gov is the U.S. government's official web portal to all federal, state and local government web resources and services.